Regional Weather Roundup
Issued by NWS

Home | Current Version | Previous Version | Graphics & Text | Print | Product List | Glossary On
Versions: 1 2 3 4 5 6 7 8 9 10 11 12 13 14 15 16 17 18 19 20 21 22 23 24 25 26 27 28 29 30 31 32 33 34 35 36 37 38 39 40 41 42 43 44 45 46 47 48 49 50
000
ASUS43 KMKX 180700
RWRWI

WISCONSIN REGIONAL WEATHER ROUNDUP
NATIONAL WEATHER SERVICE MILWAUKEE/SULLIVAN WI
200 AM CDT SAT APR 18 2015

NOTE: "FAIR" INDICATES FEW OR NO CLOUDS BELOW 12,000 FEET WITH NO
SIGNIFICANT WEATHER AND/OR OBSTRUCTIONS TO VISIBILITY.

WIZ001-002-006>008-014>016-023>028-180800-
NORTHWEST WISCONSIN

CITY           SKY/WX    TMP DP  RH WIND       PRES   REMARKS
SUPERIOR ARPT  CLEAR     49  31  48 NE12      30.12R
ASHLAND        CLEAR     47  32  56 NE10      30.14R
HAYWARD        CLEAR     52  27  38 NE16G24   30.09R
SIREN          CLEAR     53  26  35 NE7       30.08R
CUMBERLAND     CLEAR     43  32  65 N8        30.07R
RICE LAKE      CLEAR     40  38  90 CALM      30.06R
CHETEK         CLEAR     41  35  79 CALM      30.05R
LADYSMITH      CLEAR     43  34  69 CALM      30.05S
EAU CLAIRE     NOT AVBL
MENOMONIE      CLEAR     48  38  66 CALM      30.04R
NEW RICHMOND   CLEAR     42  39  88 CALM      30.05R
OSCEOLA        CLEAR     42  35  74 CALM      30.07S
$$

WIZ003>005-009-010-017-018-180800-
NORTH CENTRAL WISCONSIN

CITY           SKY/WX    TMP DP  RH WIND       PRES   REMARKS
MANITOWISH WTR CLEAR     50  28  42 N9G16     30.07R
ARBOR VITAE    CLEAR     55  28  36 NE13G20   30.06R
WOODRUFF       CLEAR     55  28  36 NE13G20   30.06R
RHINELANDER    CLEAR     51  28  41 N7        30.06R
EAGLE RIVER    CLEAR     50  25  38 N12G18    30.05R
LAND O LAKES   CLEAR     50  28  42 N14G23    30.08R
PHILLIPS       CLEAR     52  28  39 N13       30.05R
TOMAHAWK       CLEAR     39  30  70 CALM      30.05R
MEDFORD        CLEAR     45  30  55 CALM      30.04S
MERRILL        CLEAR     41  34  77 CALM      30.03R
$$

WIZ029-030-035-036-043>047-180800-
CENTRAL WISCONSIN

CITY           SKY/WX    TMP DP  RH WIND       PRES   REMARKS
WAUSAU         CLEAR     51  36  56 NW6       30.02R
MOSINEE        CLEAR     54  34  47 N5        30.04R
MARSHFIELD     CLEAR     53  33  46 N8        30.03S
STEVENS POINT  CLEAR     43  38  84 CALM      30.03S
WAUPACA        CLEAR     48  43  81 CALM      30.02R
WAUTOMA        NOT AVBL
WISC RAPIDS    CLEAR     49  37  63 SW3       30.04R
CAMP DOUGLAS   NOT AVBL
$$

WIZ011>013-019>022-031-037>040-048>050-180800-
NORTHEAST WISCONSIN

CITY           SKY/WX    TMP DP  RH WIND       PRES   REMARKS
ANTIGO         CLEAR     45  38  75 CALM      30.02S
SHAWANO        CLEAR     49  43  82 CALM      30.01R
OCONTO         CLEAR     38  37  94 CALM      29.99S
STURGEON BAY   CLEAR     46  36  66 CALM      30.01S
GREEN BAY      CLEAR     49  43  80 NE10      30.00R
MANITOWOC      NOT AVBL
APPLETON       PTCLDY    52  43  71 NW9       30.01S
CLINTONVILLE   CLEAR     46  41  81 CALM      30.01R
OSHKOSH        PTCLDY    58  43  57 W7        30.00S
$$

WIZ032>034-041-042-053>061-180800-
SOUTHWEST WISCONSIN

CITY           SKY/WX    TMP DP  RH WIND       PRES   REMARKS
LA CROSSE      PTCLDY    54  48  80 CALM      30.03R
SPARTA         MOCLDY    44  39  82 CALM      30.05R
VIROQUA        PTCLDY    59  41  52 NE5       30.04S
BOSCOBEL       CLEAR     48  44  86 CALM      30.03R
PRAIRIE DU CHI CLEAR     53  44  71 CALM      30.02S
PLATTEVILLE    MOCLDY    62  43  49 N3        30.02S
$$

WIZ056-057-062-063-064-067-068-180800-
SOUTH CENTRAL WISCONSIN

CITY           SKY/WX    TMP DP  RH WIND       PRES   REMARKS
REEDSBURG      PTCLDY    51  46  82 CALM      30.03R
BARABOO/DELLS  PTCLDY    52  42  69 CALM      30.03R
LONE ROCK      NOT AVBL
MINERAL POINT  CLEAR     63  39  42 CALM      30.02F
MADISON        CLEAR     51  45  79 MISG      30.01S
MIDDLETON      CLEAR     51  44  76 CALM      30.02S
WATERTOWN      PTCLDY    48  46  90 CALM      30.01S
MONROE         CLEAR     64  45  48 NW6       30.01S
JANESVILLE     CLEAR     52  43  71 CALM      30.01S
$$

WIZ051-052-058>065-066-070>072-180800-
SOUTHEAST WISCONSIN

CITY           SKY/WX    TMP DP  RH WIND       PRES   REMARKS
MILWAUKEE      PTCLDY    50  41  71 CALM      30.00F
WAUKESHA       CLEAR     46  41  81 CALM      30.01S
MILWAUKEE/TIMM PTCLDY    50  39  66 CALM      30.01S
RACINE         CLEAR     52  43  71 W5        30.01S HAZE
BURLINGTON     CLEAR     46  43  89 CALM      30.01R
KENOSHA        CLEAR     50  44  80 W5        30.00S HAZE
FOND DU LAC    MOCLDY    52  42  69 CALM      30.00S
SHEBOYGAN      PTCLDY    51  42  71 W7        30.00R
WEST BEND      PTCLDY    46  39  76 CALM      30.01S
JUNEAU         PTCLDY    53  43  68 CALM      30.02S
$$

LSZ147-162-180800-
LAKE SUPERIOR

STATION/POSITION TIME  TEMP    WIND        PRES    WAVE
                       AIR SEA DIR/SP/G            HT/PER
                 (UTC) (F)     (DEG/KT/KT) (MB)    (FT/S)
DEVILS ISLAND    0600   46      20/ 20/ 22 1020.7R
PORT WING        0600   47      40/ 14/ 18 1020.0R
SAXON HARBOR     0640   48      40/ 12/ 15 1020.0R
$$

LMZ867-665-643>646-180800-
LAKE MICHIGAN

STATION/POSITION TIME  TEMP    WIND        PRES    WAVE
                       AIR SEA DIR/SP/G            HT/PER
                 (UTC) (F)     (DEG/KT/KT) (MB)    (FT/S)
CHAMBERS ISLAND  0600   39     150/  1/  3 1015.6F
NORTHPORT PIER   0600   42        CALM     1015.2S
SISTER BAY       0502   45     200/  2/  5   N/A
KEWAUNEE LAKESHO 0612   52     310/  7/  7 1014.4R
SHEBOYGAN LAKESH 0600   55     230/  5/  6 1016.1R
PORT WASHINGTON  0600   47     260/  2/  3 1016.6
MILWAUKEE LAKESH 0600   44     140/  1/  2   N/A
KENOSHA   LAKESH 0600   53     230/  2/  3 1015.9R
$$

TC  - TEMPERATURE IN CELSIUS
VSB - VISIBILITY IN STATUTE MILES
WCI - WIND CHILL INDEX
HX  - HEAT INDEX



USA.gov is the U.S. government's official web portal to all federal, state and local government web resources and services.